Stations météo

réclame
Mon MeteoGroup
Twenthe, Pays-Bas (6290): Température de l'air & dewpoint: 14.09.2020 18:00:00 - 20.09.2020 18:00:00 (CEST)Twenthe, Pays-Bas (6290): Température de l'air 5cm: 14.09.2020 18:00:00 - 20.09.2020 18:00:00 (CEST)Twenthe, Pays-Bas (6290): Vitesse du vent & gusts: 14.09.2020 18:00:00 - 20.09.2020 18:00:00 (CEST)Twenthe, Pays-Bas (6290): Direction du vent: 14.09.2020 18:00:00 - 20.09.2020 18:00:00 (CEST)Twenthe, Pays-Bas (6290): reduced air pressure: 14.09.2020 18:00:00 - 20.09.2020 18:00:00 (CEST)Twenthe, Pays-Bas (6290): visibility: 14.09.2020 18:00:00 - 20.09.2020 18:00:00 (CEST)Twenthe, Pays-Bas (6290): Quantités de précipitations: 14.09.2020 18:00:00 - 20.09.2020 18:00:00 (CEST)
Date & Time tt [°C] td [°C] tt 5cm [°C] ff [km/h] ff [knt] fx [km/h] fx [knt] dd ppp [hPa] vv [km] rr [mm]
20.09.2020 18:00:00 21,7 6,9 21,6 18 10 29 16 NE 1017,7 40 0,0
20.09.2020 17:00:00 22,5 6,5 23,5 14 8 25 14 NE 1017,5 29 0,0
20.09.2020 16:00:00 22,7 6,5 24,3 18 10 29 16 NE 1017,6 29 0,0
20.09.2020 15:00:00 22,5 5,3 24,6 14 8 32 18 ENE 1017,9 34 0,0
20.09.2020 14:00:00 22,0 5,5 23,7 18 10 29 16 NE 1018,1 14 0,0
20.09.2020 13:00:00 20,7 5,7 22,8 18 10 29 16 NE 1018,3 32 0,0
20.09.2020 12:00:00 18,6 6,7 20,2 18 10 25 14 ENE 1018,6 37 0,0
20.09.2020 11:00:00 15,8 6,6 17,0 11 6 22 12 ENE 1018,9 33 0,0
20.09.2020 10:00:00 12,4 6,1 13,1 14 8 22 12 NE 1018,8 39 0,0
20.09.2020 09:00:00 10,2 5,3 10,2 7 4 22 12 NE 1018,7 43 0,0
20.09.2020 08:00:00 5,5 3,7 -0,2 4 2 7 4 NE 1018,5 38 0,0
20.09.2020 07:00:00 4,5 2,7 0,0 7 4 14 8 NE 1018,3 48 0,0
20.09.2020 06:00:00 7,2 3,6 5,3 11 6 18 10 NE 1017,9 47 0,0
20.09.2020 05:00:00 8,7 4,2 6,4 11 6 18 10 NE 1017,9 49 0,0
20.09.2020 04:00:00 9,3 4,5 7,4 14 8 18 10 NE 1018,0 49 0,0
20.09.2020 03:00:00 9,6 4,5 7,1 14 8 18 10 NE 1017,9 49 0,0
20.09.2020 02:00:00 11,0 4,9 9,2 14 8 18 10 NE 1018,0 49 0,0
20.09.2020 01:00:00 12,1 5,0 10,3 14 8 22 12 ENE 1018,2 50 0,0
20.09.2020 00:00:00 14,0 5,3 12,5 14 8 25 14 ENE 1018,4 48 0,0
19.09.2020 23:00:00 14,1 5,9 11,9 14 8 22 12 ENE 1018,5 49 0,0
19.09.2020 22:00:00 14,7 6,1 12,6 14 8 22 12 ENE 1018,2 50 0,0
19.09.2020 21:00:00 15,0 6,3 11,4 11 6 14 8 ENE 1018,1 50 0,0
19.09.2020 20:00:00 16,5 7,3 12,1 11 6 18 10 NE 1017,8 48 0,0
19.09.2020 19:00:00 19,8 7,4 18,5 11 6 22 12 ENE 1017,7 44 0,0
19.09.2020 18:00:00 22,8 5,7 22,7 11 6 25 14 ENE 1017,6 42 0,0
19.09.2020 17:00:00 23,5 4,2 24,4 14 8 25 14 E 1017,9 43 0,0
19.09.2020 16:00:00 23,5 4,6 25,4 18 10 29 16 E 1018,3 33 0,0
19.09.2020 15:00:00 23,0 6,7 25,0 18 10 32 18 ENE 1018,6 33 0,0
19.09.2020 14:00:00 21,9 7,6 24,0 18 10 29 16 ENE 1019,3 40 0,0
19.09.2020 13:00:00 20,7 7,7 22,8 14 8 22 12 E 1019,8 35 0,0
19.09.2020 12:00:00 19,0 7,5 21,0 14 8 25 14 E 1020,3 36 0,0
19.09.2020 11:00:00 16,1 5,7 17,8 14 8 25 14 E 1020,6 36 0,0
19.09.2020 10:00:00 13,7 4,9 14,3 18 10 29 16 E 1020,7 40 0,0
19.09.2020 09:00:00 10,6 4,5 10,3 7 4 18 10 ENE 1020,9 40 0,0
19.09.2020 08:00:00 7,8 3,5 5,5 7 4 14 8 ENE 1020,7 46 0,0
19.09.2020 07:00:00 7,6 3,2 5,1 7 4 14 8 ENE 1020,7 50 0,0
19.09.2020 06:00:00 7,8 3,3 5,9 7 4 18 10 ENE 1020,9 50 0,0
19.09.2020 05:00:00 7,9 3,5 5,6 7 4 14 8 ENE 1021,3 50 0,0
19.09.2020 04:00:00 9,0 3,9 6,3 7 4 18 10 ENE 1021,8 50 0,0
19.09.2020 03:00:00 10,9 4,3 9,5 11 6 22 12 ENE 1022,2 50 0,0
19.09.2020 02:00:00 11,2 4,6 9,8 11 6 22 12 ENE 1022,5 50 0,0
19.09.2020 01:00:00 12,2 4,9 11,0 14 8 25 14 ENE 1022,6 50 0,0
19.09.2020 00:00:00 13,2 5,4 11,8 18 10 25 14 ENE 1023,1 49 0,0
18.09.2020 23:00:00 13,9 5,8 12,6 18 10 29 16 ENE 1023,5 50 0,0
18.09.2020 22:00:00 14,3 6,2 13,0 18 10 25 14 ENE 1023,5 50 0,0
18.09.2020 21:00:00 14,4 6,5 11,6 14 8 18 10 ENE 1023,9 49 0,0
18.09.2020 20:00:00 14,1 6,9 10,1 11 6 14 8 NE 1023,6 50 0,0
18.09.2020 19:00:00 18,0 7,3 16,9 11 6 25 14 ENE 1023,5 41 0,0
18.09.2020 18:00:00 20,1 6,2 20,2 18 10 29 16 ENE 1023,7 41 0,0
18.09.2020 17:00:00 20,7 6,5 21,5 18 10 36 19 E 1024,1 45 0,0
18.09.2020 16:00:00 20,8 6,4 22,6 18 10 36 19 ENE 1024,5 37 0,0
18.09.2020 15:00:00 20,7 6,2 23,0 18 10 32 18 E 1025,3 31 0,0
18.09.2020 14:00:00 20,1 6,2 22,2 18 10 36 19 E 1025,8 33 0,0
18.09.2020 13:00:00 19,0 7,1 21,3 18 10 36 19 E 1026,2 29 0,0
18.09.2020 12:00:00 17,0 6,4 19,2 18 10 32 18 ENE 1027,0 35 0,0
18.09.2020 11:00:00 15,5 6,6 16,9 18 10 29 16 ENE 1027,5 34 0,0
18.09.2020 10:00:00 13,2 5,7 14,2 14 8 22 12 ENE 1027,7 35 0,0
18.09.2020 09:00:00 10,6 5,6 10,4 11 6 18 10 ENE 1027,6 39 0,0
18.09.2020 08:00:00 6,9 4,6 5,8 14 8 18 10 NE 1027,4 44 0,0
18.09.2020 07:00:00 6,6 4,2 5,6 14 8 22 12 ENE 1027,2 50 0,0
18.09.2020 06:00:00 6,9 4,2 5,8 14 8 25 14 ENE 1027,1 50 0,0
18.09.2020 05:00:00 8,2 4,8 6,9 18 10 25 14 ENE 1027,2 50 0,0
18.09.2020 04:00:00 7,5 4,5 5,3 11 6 18 10 ENE 1027,7 50 0,0
18.09.2020 03:00:00 8,5 4,8 6,3 14 8 18 10 ENE 1028,1 50 0,0
18.09.2020 02:00:00 8,7 4,5 6,0 7 4 18 10 ENE 1028,1 50 0,0
18.09.2020 01:00:00 10,3 4,9 8,7 14 8 22 12 ENE 1028,5 50 0,0
18.09.2020 00:00:00 10,1 5,0 8,3 11 6 18 10 ENE 1028,9 50 0,0
17.09.2020 23:00:00 10,6 5,1 8,8 11 6 22 12 ENE 1029,1 50 0,0
17.09.2020 22:00:00 11,2 4,9 8,6 14 8 18 10 NE 1029,1 50 0,0
17.09.2020 21:00:00 11,3 4,8 8,8 11 6 18 10 NE 1029,0 48 0,0
17.09.2020 20:00:00 12,8 4,9 9,5 11 6 22 12 NE 1028,6 50 0,0
17.09.2020 19:00:00 15,2 4,9 14,1 14 8 36 19 NE 1028,3 46 0,0
17.09.2020 18:00:00 17,3 4,4 17,3 22 12 32 18 NE 1028,4 38 0,0
17.09.2020 17:00:00 18,1 4,8 18,8 22 12 32 18 NE 1028,4 45 0,0
17.09.2020 16:00:00 18,3 4,3 18,0 18 10 32 18 NE 1028,7 46 0,0
17.09.2020 15:00:00 18,2 4,2 20,0 14 8 36 19 ENE 1029,2 41 0,0
17.09.2020 14:00:00 18,1 6,0 19,6 18 10 36 19 NE 1029,7 39 0,0
17.09.2020 13:00:00 16,8 4,5 19,1 22 12 36 19 NE 1030,1 41 0,0
17.09.2020 12:00:00 15,8 6,2 17,6 22 12 32 18 ENE 1030,3 43 0,0
17.09.2020 11:00:00 14,8 6,5 16,0 18 10 29 16 E 1030,3 37 0,0
17.09.2020 10:00:00 13,2 8,3 13,7 14 8 29 16 ENE 1030,1 34 0,0
17.09.2020 09:00:00 11,2 8,9 10,9 14 8 25 14 NE 1029,5 25 0,0
17.09.2020 08:00:00 8,7 8,6 7,7 11 6 14 8 NNE 1029,2 13 0,0
17.09.2020 07:00:00 7,8 7,7 3,6 7 4 11 6 N 1028,2 9 0,0
17.09.2020 06:00:00 7,6 7,4 2,6 7 4 7 4 N 1027,8 0,6 0,0
17.09.2020 05:00:00 7,0 7,0 1,3 4 2 7 4 N 1027,8 0,2 0,0
17.09.2020 04:00:00 8,3 8,3 3,9 0 0 4 2 N 1027,6 0,3 0,0
17.09.2020 03:00:00 7,6 7,6 2,9 0 0 4 2 N 1027,5 0,1 0,0
17.09.2020 02:00:00 9,6 9,4 4,4 0 0 7 4 N 1027,4 1,4 0,0
17.09.2020 01:00:00 11,2 9,8 8,1 7 4 14 8 N 1027,1 13 0,0
17.09.2020 00:00:00 12,7 10,3 11,3 11 6 25 14 N 1026,7 16 0,0
16.09.2020 23:00:00 14,2 11,0 13,1 18 10 25 14 N 1026,0 17 0,0
16.09.2020 22:00:00 15,2 12,0 14,4 18 10 40 21 N 1025,4 16 0,0
16.09.2020 21:00:00 16,7 13,9 15,5 14 8 29 16 N 1024,4 21 0,0
16.09.2020 20:00:00 17,1 13,7 16,1 11 6 36 19 N 1023,4 23 0,0
16.09.2020 19:00:00 18,8 14,6 18,4 22 12 36 19 N 1022,7 27 0,0
16.09.2020 18:00:00 21,3 15,1 21,7 22 12 36 19 N 1021,7 29 0,0
16.09.2020 17:00:00 22,6 13,6 21,8 22 12 32 18 N 1021,5 37 0,0
16.09.2020 16:00:00 23,2 12,5 23,5 25 14 40 21 N 1021,3 36 0,0
16.09.2020 15:00:00 24,1 15,2 25,7 22 12 32 18 N 1020,8 24 0,0
16.09.2020 14:00:00 23,8 16,8 25,4 22 12 32 18 N 1020,5 16 0,0
16.09.2020 13:00:00 22,4 17,0 24,1 18 10 29 16 N 1020,1 8 0,0
16.09.2020 12:00:00 21,6 16,0 22,9 18 10 25 14 N 1019,7 8 0,0
16.09.2020 11:00:00 20,5 16,7 21,7 18 10 32 18 N 1019,1 6 0,0
16.09.2020 10:00:00 19,2 15,3 19,2 11 6 14 8 NNW 1018,6 13 0,0
16.09.2020 09:00:00 18,0 15,7 17,3 4 2 4 2 NE 1018,1 13 0,0
16.09.2020 08:00:00 13,4 13,3 12,1 4 2 7 4 SE 1017,7 7 0,0
16.09.2020 07:00:00 14,2 13,5 11,6 4 2 7 4 E 1017,1 11 0,0
16.09.2020 06:00:00 14,4 14,1 11,6 4 2 7 4 ESE 1017,1 16 0,0
16.09.2020 05:00:00 14,2 13,9 11,9 4 2 7 4 ESE 1017,3 13 0,0
16.09.2020 04:00:00 15,0 14,9 11,8 0 0 4 2 N 1017,6 9 0,0
16.09.2020 03:00:00 15,3 15,1 11,6 4 2 4 2 ENE 1017,8 15 0,0
16.09.2020 02:00:00 15,5 15,0 12,1 0 0 4 2 N 1017,8 23 0,0
16.09.2020 01:00:00 16,1 15,8 12,5 0 0 4 2 N 1018,0 17 0,0
16.09.2020 00:00:00 16,6 16,3 12,9 0 0 4 2 N 1018,2 14 0,0
15.09.2020 23:00:00 17,5 16,6 13,6 4 2 4 2 NNE 1018,2 26 0,0
15.09.2020 22:00:00 18,0 17,3 14,1 0 0 4 2 N 1018,3 31 0,0
15.09.2020 21:00:00 19,7 16,8 15,4 0 0 4 2 N 1018,2 38 0,0
15.09.2020 20:00:00 21,8 17,5 18,1 0 0 7 4 N 1018,1 44 0,0
15.09.2020 19:00:00 26,5 18,2 24,8 4 2 7 4 N 1018,1 35 0,0
15.09.2020 18:00:00 31,6 14,8 31,6 4 2 7 4 S 1017,8 40 0,0
15.09.2020 17:00:00 31,9 14,3 32,6 4 2 7 4 S 1018,0 34 0,0
15.09.2020 16:00:00 31,6 14,5 32,9 4 2 11 6 W 1018,4 34 0,0
15.09.2020 15:00:00 30,9 14,9 32,7 4 2 11 6 SSE 1018,9 28 0,0
15.09.2020 14:00:00 29,7 15,0 32,0 7 4 14 8 SSE 1019,4 27 0,0
15.09.2020 13:00:00 28,7 14,7 30,6 7 4 11 6 S 1019,8 24 0,0
15.09.2020 12:00:00 26,7 15,8 28,2 4 2 11 6 WSW 1020,2 19 0,0
15.09.2020 11:00:00 24,6 15,2 25,9 7 4 11 6 S 1020,3 29 0,0
15.09.2020 10:00:00 21,9 15,7 22,1 4 2 7 4 SSE 1020,2 22 0,0
15.09.2020 09:00:00 18,2 15,8 16,7 4 2 4 2 ESE 1020,1 18 0,0
15.09.2020 08:00:00 13,5 13,3 10,9 4 2 7 4 SE 1020,1 10 0,0
15.09.2020 07:00:00 13,7 13,3 9,6 0 0 4 2 N 1020,0 12 0,0
15.09.2020 06:00:00 14,2 13,7 9,6 4 2 4 2 NE 1020,0 11 0,0
15.09.2020 05:00:00 14,8 13,9 10,5 4 2 4 2 NNE 1020,1 13 0,0
15.09.2020 04:00:00 15,1 14,4 10,7 4 2 4 2 NNE 1020,4 15 0,0
15.09.2020 03:00:00 15,0 14,5 10,7 0 0 4 2 N 1020,8 16 0,0
15.09.2020 02:00:00 15,1 13,9 11,7 0 0 7 4 N 1021,2 20 0,0
15.09.2020 01:00:00 16,2 15,2 12,2 4 2 4 2 ENE 1021,4 30 0,0
15.09.2020 00:00:00 16,9 14,6 12,7 4 2 7 4 NNE 1021,6 34 0,0
14.09.2020 23:00:00 17,8 15,5 14,7 0 0 14 8 N 1021,8 32 0,0
14.09.2020 22:00:00 17,7 15,9 14,8 7 4 7 4 NNE 1021,8 36 0,0
14.09.2020 21:00:00 19,2 17,0 15,6 7 4 11 6 NNE 1021,8 38 0,0
14.09.2020 20:00:00 19,6 16,5 18,4 7 4 11 6 E 1021,8 34 0,0
14.09.2020 19:00:00 26,2 16,5 24,2 7 4 14 8 ENE 1021,8 39 0,0
14.09.2020 18:00:00 28,7 16,0 28,5 7 4 14 8 E 1022,3 40 0,0

tt = Température de l'air
td = dewpoint
tt 5cm = Température de l'air 5cm
ff = Vitesse du vent
fx = gusts
dd = Direction du vent
ppp = reduced air pressure
vv = visibility
rr = Quantités de précipitations

stations d'obs. à proximité